DW0265 Weather Reports


time (UTC)temp
C
wind
direction
speed
KPH
gust
KPH
rain 1hr
cm
rain 24hr
cm
rain mn
cm
humidity
%
barometer
mb
20260510140504 11 46 1.6 19.3 0.03 0.03 0.03 78 1016.3
20260510140004 12 93 1.6 14.5 0.03 0.03 0.03 77 1016.3
20260510133505 12 44 1.6 20.9 0.00 0.00 0.00 72 1016.3
20260510123004 13 54 3.2 20.9 0.00 0.00 0.00 65 1016.8
20260510120504 13 35 1.6 4.8 0.00 0.00 0.00 63 1016.8
20260510113504 13 58 3.2 19.3 0.00 0.00 0.00 65 1017.0
20260510113004 13 15 1.6 19.3 0.00 0.00 0.00 64 1017.0
20260510103504 12 6 1.6 4.8 0.00 0.00 0.00 69 1017.4
20260510103004 12 354 1.6 19.3 0.00 0.00 0.00 69 1017.4
20260510093004 12 44 1.6 19.3 0.00 0.00 0.00 70 1017.3
20260510090504 11 9 1.6 4.8 0.00 0.00 0.00 72 1017.5
20260510083504 11 51 1.6 14.5 0.00 0.00 0.00 74 1017.8
20260510083004 11 63 4.8 19.3 0.00 0.00 0.00 74 1017.9
20260510080504 11 0 0.0 4.8 0.00 0.00 0.00 75 1017.9
20260510073504 11 0 1.6 4.8 0.00 0.00 0.00 77 1017.8
20260510063004 10 32 1.6 19.3 0.00 0.00 0.00 79 1017.8
20260510053503 10 24 0.0 0.0 0.00 0.00 0.00 83 1017.6
20260510053004 10 24 0.0 4.8 0.00 0.00 0.00 83 1017.6
20260510050503 9 30 0.0 0.0 0.00 0.00 0.00 84 1017.7
20260510050004 9 30 0.0 8.0 0.00 0.00 0.00 84 1017.6
20260510043004 9 338 0.0 4.8 0.00 0.00 0.00 84 1017.7
20260510040504 9 22 0.0 4.8 0.00 0.00 0.00 84 1017.9
20260510040004 9 329 0.0 4.8 0.00 0.00 0.00 83 1017.9
20260510023506 10 41 0.0 4.8 0.00 0.00 0.00 78 1018.1
20260510020505 10 44 0.0 4.8 0.00 0.00 0.00 75 1018.1
20260510013505 10 23 0.0 4.8 0.00 0.00 0.00 74 1017.9
20260510013006 10 50 0.0 11.3 0.00 0.00 0.00 74 1018.0
20260510010506 10 3 0.0 8.0 0.00 0.00 0.00 71 1018.1
20260510003505 11 0 0.0 0.0 0.00 0.00 0.00 69 1018.0
20260509233505 11 38 0.0 1.6 0.00 0.00 0.00 66 1018.1
20260509230505 11 39 1.6 8.0 0.00 0.00 0.00 64 1018.0
20260509220505 12 12 0.0 0.0 0.00 0.00 0.00 60 1017.8
20260509213005 12 21 0.0 4.8 0.00 0.00 0.00 55 1017.9
20260509210505 13 112 1.6 4.8 0.00 0.00 0.00 51 1017.8
20260509203505 13 84 0.0 0.0 0.00 0.00 0.00 46 1017.6
20260509200005 15 105 0.0 9.7 0.00 0.00 0.00 44 1017.3
20260509190005 16 112 0.0 8.0 0.00 0.00 0.00 44 1016.9
20260509170504 19 80 1.6 4.8 0.00 0.00 0.00 44 1016.4
20260509153505 21 72 1.6 9.7 0.00 0.00 0.00 40 1016.6
20260509153005 21 86 1.6 19.3 0.00 0.00 0.00 40 1016.7
20260509150004 21 39 1.6 11.3 0.00 0.00 0.00 40 1016.8
20260509143004 21 3 1.6 19.3 0.00 0.00 0.00 40 1016.6